Location: Poprad
(49.0500°N, 20.3000°E)
Time: 18:52:30
(UTC+02:00)

ITUPSAT 1 - Pass Details

Date: 26 April 2024
Orbit: 694 x 707 km, 98.5° (Epoch: 20 May)

Event Time Altitude Azimuth Distance (km) Brightness Sun altitude
Rises 22:36:52 0° 16° (NNE) 3,086 ? -21.7°
Reaches altitude 10° 22:39:09 10° 20° (NNE) 2,163 ? -21.9°
Maximum altitude 22:43:51 64° 102° (ESE) 768 ? -22.3°
Enters shadow 22:44:18 61° 134° (SE) 792 ? -22.4°
